Regional Weather Roundup
Issued by NWS

Home | Current Version | Previous Version | Text Only | Print | Product List | Glossary On
Versions: 1 2 3 4 5 6 7 8 9 10 11 12 13 14 15 16 17 18 19 20 21 22 23 24 25 26 27 28 29 30 31 32 33 34 35 36 37 38 39 40 41 42 43 44 45 46 47 48 49 50
000
ASUS44 KEWX 221002
RWRTX
SOUTH TEXAS REGIONAL WEATHER ROUNDUP
NATIONAL WEATHER SERVICE AUSTIN/SAN ANTONIO TX
500 AM CDT WED OCT 22 2014

NOTE: "FAIR" INDICATED FEW OR NO CLOUDS BELOW 12,000 FEET WITH NO
SIGNIFICANT WEATHER AND/OR OBSTRUCTIONS TO VISIBILITY.

* - THESE STATIONS ARE NOT NWS OR FAA STATIONS...AND ARE NOT SUBJECT
    TO NWS AND FAA QUALITY CONTROL.

TXZ171-172-183>190-221100-
TEXAS HILL COUNTRY AND EDWARDS PLATEAU

CITY           SKY/WX    TMP DP  RH WIND       PRES   REMARKS
JUNCTION       MOCLDY    66  48  52 E3        30.07R
*LLANO         NOT AVBL
BURNET         MOCLDY    61  54  77 CALM      30.09S
*HORSESHOE BAY MOCLDY    61  54  78 CALM      30.06S
*KERRVILLE     PTCLDY    56  52  86 CALM      30.07S
*FREDERICKSBRG MOCLDY    57  53  85 CALM      30.07F
*ROCKSPRINGS   MOCLDY    63  55  77 CALM      30.09S
*BOERNE STAGE  MOCLDY    55  48  76 CALM      30.07S
*CASTROVILLE   MOCLDY    67  54  62 E5        30.05S
HONDO          PTCLDY    61  53  75 NE5       30.06R
*UVALDE        PTCLDY    68  58  69 CALM      30.05R
DEL RIO        CLOUDY    69  67  93 E6        30.01R
LAUGHLIN AFB   CLOUDY    69  66  91 E6        30.02R
CARRIZO SPRGS  PTCLDY    66  63  88 E3        30.00S
$$

TXZ173-191>194-202-209-217>225-228-221100-
CENTRAL AND SOUTH CENTRAL TEXAS

CITY           SKY/WX    TMP DP  RH WIND       PRES   REMARKS
GEORGETOWN     MOCLDY    59  55  88 CALM      30.06S
AUSTIN/BERGSTM MOCLDY    58  56  93 CALM      30.05S
AUSTIN/MABRY   MOCLDY    62  57  83 CALM      30.06S
*AUSTIN/EXEC   MOCLDY    61  55  82 CALM      30.05S
*LAGO VISTA    NOT AVBL
SAN MARCOS     MOCLDY    57  48  72 NW6       30.06R
NEW BRAUNFELS  MOCLDY    61  52  72 NW5       30.04R
RANDOLPH AFB   MOCLDY    59  51  74 N6        30.04S
PT SAN ANTONIO CLOUDY    66  54  65 NE5       30.02S
SAN ANTONIO    MOCLDY    64  53  67 CALM      30.04S
STINSON FIELD  MOCLDY    66  53  63 NE5       30.02S
*PLEASANTON    MOCLDY    61  55  80 N3        30.02F
*LA GRANGE     PTCLDY    59  57  94 CALM      30.02S
*GIDDINGS      PTCLDY    59  56  89 CALM      30.08S
*GONZALES      PTCLDY    59  55  84 CALM      30.03S
$$

TXZ163>164-176>182-195>201-210>213-226-227-235-221100-
SOUTHEAST TEXAS

CITY           SKY/WX    TMP DP  RH WIND       PRES   REMARKS
COLLEGE STN    PTCLDY    65  60  84 CALM      30.05R
*BRYAN         PTCLDY    61  59  95 CALM      30.07R
*CALDWELL      PTCLDY    61  57  88 CALM      30.08S
*CROCKETT      PTCLDY    61  61 100 CALM      30.09S FOG
*BRENHAM       PTCLDY    60  58  93 CALM      30.05S
HUNTSVILLE     CLEAR     58  55  90 CALM      30.05S
CONROE         PTCLDY    60  58  92 CALM      30.05S FOG
HOUSTON BUSH   PTCLDY    63  61  93 N5        30.03S
HOUSTON HOBBY  PTCLDY    66  62  87 CALM      30.02R
*HOUSTON SW AP CLEAR     56  55  99 CALM      30.02S
PEARLAND       CLEAR     65  61  87 NE3       30.03R
HOUSTON HOOKS  CLEAR     64  61  90 NE3       30.04R
ELLINGTON FLD  NOT AVBL
SUGAR LAND     CLEAR     63  60  90 NE3       30.02S
*HOUSTON EXEC  CLEAR     59 N/A N/A NE5       30.04R
*CLEVELAND MUN CLEAR     58  58  98 CALM      30.05S
*WHARTON       CLEAR     60  57  88 N6        30.02S
*COLUMBUS      FAIR      60  58  94 N3        30.03R
$$

TXZ214>216-236>238-221100-
THE UPPER TEXAS COAST

CITY           SKY/WX    TMP DP  RH WIND       PRES   REMARKS
*ORANGE          N/A    N/A N/A N/A CALM      30.05S FOG
PORT ARTHUR    CLEAR     65  62  90 NE7       30.03R
GALVESTON      CLEAR     70  67  90 NE9       30.02R
ANGLETON       PTCLDY    61  60  97 NE6       30.00S
*BAY CITY        N/A     63  62  97 NE5       30.00R
PALACIOS       CLEAR     61  59  93 NE6       29.99S
$$

TXZ229>234-239>247-221100-
TEXAS COASTAL BEND AND RIO GRANDE PLAINS

CITY           SKY/WX    TMP DP  RH WIND       PRES   REMARKS
VICTORIA       CLEAR     60  55  83 N6        30.02R
*BEEVILLE      CLEAR     67  59  75 E6        30.00R
ROCKPORT       PTCLDY    69  66  90 N6        29.98S
*PORT ARANSAS  CLEAR     75  65  71 E12       29.97R
*PORT LAVACA   CLEAR     66  62  86 NE8       30.00S
*INGLESIDE     PTCLDY    67  64  91 N6        29.97S
CORPUS CHRISTI MOCLDY    69  66  90 N7        29.97S
CORPUS NAS     PTCLDY    75  67  76 E10       29.96S
*ROBSTOWN      NOT AVBL
ALICE          MOCLDY    67  63  87 NE7       29.98S
KINGSVILLE NAS PTCLDY    67  66  97 N7        29.98R
COTULLA        PTCLDY    70  61  73 E7        30.01S
*FAITH RANCH   MOCLDY    66  64  94 E6        30.01R
LAREDO         CLOUDY    70  68  93 NE6       30.01S
$$

TXZ248>255-221100-
DEEP SOUTH TEXAS

CITY           SKY/WX    TMP DP  RH WIND       PRES   REMARKS
BROWNSVILLE    LGT RAIN  73  70  90 E12       29.93S
PORT ISABEL    MOCLDY    77  72  84 E5        29.93R
*SOUTH PADRE   CLOUDY    81  73  78 NE13G18   29.92S
HARLINGEN      CLEAR     73  71  93 NE7       29.93R
*HEBBRONVILLE  MOCLDY    67  64  92 NE5       29.99F
MCALLEN        CLEAR     72  69  90 N6        29.95R
*WESLACO       NOT AVBL
FALFURRIAS     MOCLDY    67  65  94 N3        29.97R
EDINBURG       PTCLDY    71  68  90 N6        29.95S
*ZAPATA        NOT AVBL
$$

TXZ213>215-236>238-242>244-246-247-251-254-255-221100-
CMAN STATIONS

STATION/POSITION TIME  TEMP    WIND        PRES    WAVE
                       AIR SEA DIR/SP/G            HT/PER
                 (UTC) (F)     (DEG/KT/KT) (MB)    (FT/S)
SABINE PASS      0900   66 75   40/  6/  8 1016.7
SEA RIM ST PARK  0900   65      50/  6/  7 1017.0
NORTH JETTY/GLS  0900   72 77   70/ 13/ 14   N/A
EAGLE POINT      0900   72 74   80/ 13/ 15 1016.2
MORGANS POINT    0900   68      50/  7/  8 1016.2
MISSION/ARANSAS  0900           30/  8     1016.0
PORT O`CONNOR    0900           40/ 11/ 13   N/A
PORT ARANSAS     0900   77 77   70/ 16/ 19 1015.1
MALAQUITE BEACH  0900   78 78   70/ 15/ 17 1013.8
BAFFIN BAY       0900   77 81   80/ 10/ 12 1014.1
$$

GMZ080-GMZ150>470-221100-
OFFSHORE BUOY REPORTS

STATION/POSITION TIME  TEMP    WIND        PRES    WAVE
                       AIR SEA DIR/SP/G            HT/PER
                 (UTC) (F)     (DEG/KT/KT) (MB)    (FT/S)
20 E GALVESTON   1000   76 78   70/ 16/ 19 1015.3    3/ 6
90 E PT ARANSAS  1000   78 81   70/ 17/ 21 1014.6    6/ 8
35 NE PT MANSFLD 0900   79 80   80/ 16/ 19 1013.2    5/ 7
200 E PT ISABEL  0900   80 81   60/ 19/ 23 1011.8    6/ 6
$$



USA.gov is the U.S. government's official web portal to all federal, state and local government web resources and services.